UPS282 EDDK-EKCH

Flight info

Callsign UPS282
Flight time N/A
Altitude 37000
Route PODIP1R PODIP Y867 PELUN DCT ANZIV DCT WRB Y867 TOLGI DCT ELKIM DCT MIKNA N851 PELUP Z226 NILUG
Aircraft B748/H-SDE3FGHIM1M2RWXY/LB1

Departure

Time N/A
Airport Cologne Bonn Airport (EDDK)

Arrival

Time 2026-05-07 13:56
Airport Copenhagen Kastrup Airport (EKCH)
Time Latitude Longitude Altitude Speed Heading
2026-05-07 13:47 55.24485 12.66136 8731 ft 284 kts 28°
2026-05-07 13:47 55.26211 12.67816 8438 ft 283 kts 29°
2026-05-07 13:47 55.27930 12.69519 8165 ft 283 kts 29°
2026-05-07 13:47 55.29651 12.71186 7866 ft 282 kts 28°
2026-05-07 13:48 55.31482 12.72488 7216 ft 292 kts
2026-05-07 13:48 55.33537 12.72296 6482 ft 305 kts 344°
2026-05-07 13:48 55.35423 12.70581 5682 ft 317 kts 321°
2026-05-07 13:48 55.36858 12.67562 4891 ft 330 kts 299°
2026-05-07 13:49 55.37504 12.63740 4636 ft 324 kts 276°
2026-05-07 13:49 55.37488 12.59836 4425 ft 311 kts 268°
2026-05-07 13:49 55.37360 12.56151 4236 ft 294 kts 269°
2026-05-07 13:49 55.37341 12.52650 4070 ft 279 kts 274°
2026-05-07 13:50 55.37596 12.49418 3985 ft 261 kts 293°
2026-05-07 13:50 55.38568 12.46880 3827 ft 246 kts 322°
2026-05-07 13:50 55.40059 12.45601 3638 ft 235 kts 347°
2026-05-07 13:50 55.41621 12.45060 3467 ft 225 kts 348°
2026-05-07 13:51 55.43062 12.44316 3290 ft 207 kts 340°
2026-05-07 13:51 55.44373 12.43339 3144 ft 197 kts 336°
2026-05-07 13:51 55.45562 12.42461 2993 ft 176 kts 345°
2026-05-07 13:51 55.46694 12.42674 2827 ft 161 kts 28°
2026-05-07 13:52 55.47606 12.43841 2768 ft 163 kts 36°
2026-05-07 13:52 55.48467 12.45099 2641 ft 161 kts 38°
2026-05-07 13:52 55.49315 12.46368 2511 ft 155 kts 39°
2026-05-07 13:52 55.50107 12.47550 2299 ft 144 kts 36°
2026-05-07 13:53 55.50907 12.48604 1884 ft 145 kts 34°
2026-05-07 13:53 55.51709 12.49587 1559 ft 142 kts 33°
2026-05-07 13:53 55.52526 12.50571 1346 ft 147 kts 33°
2026-05-07 13:53 55.53399 12.51631 1317 ft 155 kts 34°
2026-05-07 13:54 55.54251 12.52713 1204 ft 148 kts 37°
2026-05-07 13:54 55.55065 12.53833 1047 ft 145 kts 38°
2026-05-07 13:54 55.55823 12.54978 742 ft 141 kts 41°
2026-05-07 13:54 55.56527 12.56137 508 ft 136 kts 41°
2026-05-07 13:55 55.57251 12.57290 405 ft 148 kts 39°
2026-05-07 13:55 55.58016 12.58470 293 ft 144 kts 39°
2026-05-07 13:55 55.58765 12.59627 100 ft 141 kts 39°
2026-05-07 13:55 55.59485 12.60743 29 ft 126 kts 40°
2026-05-07 13:56 55.59977 12.61520 29 ft 71 kts 41°
2026-05-07 13:56 55.60311 12.62029 27 ft 56 kts 41°
2026-05-07 13:56 55.60496 12.62274 29 ft 23 kts 25°
2026-05-07 13:56 55.60626 12.62338 29 ft 19 kts 12°
2026-05-07 13:57 55.60754 12.62388 27 ft 17 kts 17°
2026-05-07 13:57 55.60838 12.62475 27 ft 12 kts 38°
2026-05-07 13:57 55.60896 12.62568 27 ft 10 kts 41°
2026-05-07 13:57 55.60954 12.62653 27 ft 12 kts 39°
2026-05-07 13:58 55.61023 12.62757 27 ft 14 kts 41°
2026-05-07 13:58 55.61103 12.62881 27 ft 16 kts 41°
2026-05-07 13:58 55.61192 12.63023 27 ft 18 kts 42°
2026-05-07 13:58 55.61291 12.63177 27 ft 20 kts 40°
2026-05-07 13:59 55.61400 12.63344 27 ft 21 kts 41°
2026-05-07 13:59 55.61515 12.63519 27 ft 23 kts 41°
2026-05-07 13:59 55.61630 12.63698 27 ft 19 kts 41°
2026-05-07 13:59 55.61715 12.63834 27 ft 17 kts 41°
2026-05-07 14:00 55.61798 12.63962 27 ft 15 kts 41°
2026-05-07 14:00 55.61881 12.64079 27 ft 14 kts 28°
2026-05-07 14:00 55.61974 12.64156 27 ft 16 kts 25°
2026-05-07 14:00 55.62068 12.64234 27 ft 15 kts 25°
2026-05-07 14:01 55.62131 12.64287 27 ft 0 kts 26°
2026-05-07 14:01 55.62139 12.64294 26 ft 5 kts 26°
2026-05-07 14:02 55.62190 12.64338 27 ft 11 kts 26°
2026-05-07 14:02 55.62211 12.64371 30 ft 3 kts 59°
2026-05-07 14:02 55.62216 12.64405 27 ft 5 kts 84°
2026-05-07 14:02 55.62199 12.64499 32 ft 10 kts 122°
2026-05-07 14:03 55.62146 12.64646 28 ft 16 kts 122°
2026-05-07 14:03 55.62079 12.64829 28 ft 21 kts 123°
2026-05-07 14:03 55.61986 12.65076 31 ft 28 kts 124°
2026-05-07 14:03 55.61879 12.65367 31 ft 28 kts 122°
2026-05-07 14:04 55.61769 12.65666 28 ft 28 kts 124°
2026-05-07 14:04 55.61667 12.65936 29 ft 26 kts 123°
2026-05-07 14:04 55.61581 12.66165 28 ft 23 kts 123°
2026-05-07 14:04 55.61489 12.66417 27 ft 25 kts 122°
2026-05-07 14:05 55.61394 12.66681 28 ft 25 kts 122°
2026-05-07 14:05 55.61305 12.66921 29 ft 22 kts 124°
2026-05-07 14:05 55.61287 12.67039 29 ft 7 kts 81°
2026-05-07 14:05 55.61298 12.67074 29 ft 1 kts 49°
2026-05-07 14:06 55.61319 12.67099 28 ft 7 kts 32°
2026-05-07 14:06 55.61366 12.67128 27 ft 7 kts
2026-05-07 14:06 55.61415 12.67128 27 ft 9 kts 356°
2026-05-07 14:06 55.61479 12.67108 27 ft 12 kts 349°
2026-05-07 14:07 55.61573 12.67074 27 ft 13 kts 348°
2026-05-07 14:07 55.61611 12.67072 27 ft 1 kts 24°
2026-05-07 14:07 55.61618 12.67087 27 ft 1 kts 52°
2026-05-07 14:07 55.61625 12.67119 26 ft 3 kts 77°
2026-05-07 14:08 55.61632 12.67178 27 ft 0 kts 78°
2026-05-07 14:08 55.61633 12.67191 27 ft 0 kts 79°
2026-05-07 14:08 55.61633 12.67192 27 ft 0 kts 79°
2026-05-07 14:08 55.61635 12.67204 27 ft 4 kts 78°
2026-05-07 14:09 55.61636 12.67218 27 ft 0 kts 79°